Location: Alafon
(8.4500°N, 4.2333°E)
Time: 07:39:11
(UTC+00:00)

Vanguard 2 - Pass Details

Date: 04 August 2021
Orbit: 553 x 2937 km, 32.9° (Epoch: 24 September)

Event Time Altitude Azimuth Distance (km) Brightness Sun altitude
Rises 20:42:06 0° 210° (SSW) 5,946 12.1 -37.2°
Enters shadow 20:48:17 - 193° (SSW) 4,499 11.3 -38.6°
Reaches altitude 10° 20:48:44 10° 191° (S) 4,402 - -38.7°
Maximum altitude 20:54:49 16° 159° (SSE) 3,382 - -40.0°
Drops below altitude 10° 20:59:36 10° 125° (SE) 3,325 - -41.0°
Sets 21:03:25 0° 103° (ESE) 3,881 - -41.8°
